Location: Coll
(42.4728°N, 0.7714°E)
Time: 12:15:59
(UTC+00:00)

CZ-4B R/B - Pass Details

Date: 23 October 2020
Orbit: 388 x 461 km, 97.6° (Epoch: 30 November)

Event Time Altitude Azimuth Distance (km) Brightness Sun altitude
Rises 05:25:37 0° 198° (SSW) 2,480 5.0 -10.6°
Reaches altitude 10° 05:28:01 10° 215° (SW) 1,614 3.9 -10.2°
Maximum altitude 05:30:40 20° 265° (W) 1,125 2.8 -9.7°
Drops below altitude 10° 05:33:20 10° 315° (NW) 1,624 3.8 -9.2°
Sets 05:35:46 0° 332° (NNW) 2,501 4.8 -8.8°
